Miscellaneous Local Product
Issued by NWS North Platte, NE

Home | Current Version | Previous Version | Graphics & Text | Print | Product List | Glossary On
Versions: 1 2 3 4 5 6 7 8 9 10 11 12 13 14 15 16 17 18 19 20 21 22 23 24 25 26 27 28 29 30 31 32 33 34 35 36 37 38 39 40 41 42 43 44 45 46 47 48 49 50
000
AXUS43 KLBF 301510
MISLBF


WESTERN AND NORTH CENTRAL NEBRASKA HOURLY WEATHER ROUNDUP
NATIONAL WEATHER SERVICE NORTH PLATTE NE
1000 AM CDT SUN AUG 30 2015

NOTE: "FAIR" INDICATES FEW OR NO CLOUDS BELOW 12,000 FEET WITH NO
SIGNIFICANT WEATHER AND/OR OBSTRUCTIONS TO VISIBILITY.

NOTE: STATIONS NOT REPORTING VARIABLES SUCH AS SKY/WEATHER OR
PRESSURE ARE PROVIDED BY THE NEBRASKA DEPARTMENT OF
ROADS...RAWS...AND APRS NETWORKS...AND ARE NOT UNDER
NATIONAL WEATHER SERVICE QUALITY CONTROL.

...OBSERVATIONS IN AND NEAR THE EASTERN PANHANDLE OF NEBRASKA...

CITY           SKY/WX    TMP DP  RH WIND       PRES   REMARKS
PINE RIDGE     SUNNY     76  47  35 S13G22    29.90F
CHADRON        PTSUNNY   79  47  32 S7        29.89S
ALLIANCE       MOSUNNY   75  46  35 S17       29.98F
SIDNEY         SUNNY     74  46  36 S16       30.04S
CRESCENT LAKE    N/A     76  50  39 S9G16       N/A
BIG SPRINGS      N/A     74  53  47 SW8         N/A
$$

...OBSERVATIONS IN NORTH CENTRAL NEBRASKA...

CITY           SKY/WX    TMP DP  RH WIND       PRES   REMARKS
VALENTINE      SUNNY     76  52  43 SW13      29.94S
THEDFORD       SUNNY     73  53  50 SW12      30.01R
AINSWORTH      SUNNY     71  56  58 S10       29.97S
O`NEILL        SUNNY     71  64  80 S8        29.98F
ORD            SUNNY     67  61  81 S7        30.00F
BROKEN BOW     SUNNY     69  63  81 SE5       30.02S
SPRINGVIEW       N/A     72  63  72 CALM        N/A
SARGENT          N/A     64  62  94 CALM        N/A
CHAMBERS         N/A     72  64  76 S8          N/A
EWING            N/A     68  64  85 S3          N/A
$$

...OBSERVATIONS IN SOUTHWEST NEBRASKA AND FAR NORTHEAST COLORADO...

CITY           SKY/WX    TMP DP  RH WIND       PRES   REMARKS
WRAY           FAIR      79  45  30 S15G22    30.05S
HOLYOKE        FAIR      77  50  38 S13       30.04S
IMPERIAL       SUNNY     74  49  41 S14       30.03F
OGALLALA       SUNNY     70  52  52 SW5       30.02S
NORTH PLATTE   SUNNY     70  54  56 S6        30.01F
MCCOOK         SUNNY     69  54  58 CALM      30.03F
LEXINGTON      SUNNY     68  63  83 S5        30.04S
PAXTON           N/A     69  56  64 S8          N/A
BRADY            N/A     69  59  71 CALM        N/A
CALLAWAY         N/A     69  65  88 S6          N/A
$$

...OBSERVATIONS IN CENTRAL LINCOLN COUNTY AREA...

CITY           SKY/WX    TMP DP  RH WIND       PRES   REMARKS
N.P. AIRPORT   SUNNY     70  54  56 S6        30.01F
N.P. DOWNTOWN    N/A     72  56  57 S3          N/A
N.P. SOUTHEAST   N/A     72  56  56 S3          N/A
$$

...SOME OBSERVATIONS FROM AROUND THE REGION...

CITY           SKY/WX    TMP DP  RH WIND       PRES   REMARKS
DENVER         PTSUNNY   75  43  31 SW5       30.12S
LARAMIE        MOSUNNY   68  38  33 S13       30.22F
CHEYENNE       SUNNY     77  41  27 W9        30.14S
SCOTTSBLUFF    SUNNY     70  47  43 SE9       29.98F
RAPID CITY     MOSUNNY   75  53  46 S10       29.83F
PIERRE         SUNNY     75  58  55 SE8       29.81F
WINNER         FAIR      75  55  49 S18       29.89S
SIOUX FALLS    CLOUDY    64  62  93 S12       29.99S
OMAHA          CLOUDY    65  62  90 S12       30.06S FOG
GRAND ISLAND   PTSUNNY   66  62  87 S9        30.05S
KANSAS CITY    HAZE      70  65  84 E5        30.06S VSB 3/4
WICHITA        CLOUDY    68  64  87 N5        30.07R FOG
HAYS           SUNNY     66  55  68 SW5       30.06F
LIBERAL        SUNNY     70  57  64 CALM      30.11R
GOODLAND       SUNNY     72  50  45 S13       30.09S
$$



USA.gov is the U.S. government's official web portal to all federal, state and local government web resources and services.